Tracking 29528 objects as of 12-Sep-2024
HD Live streaming from Space Station
objects crossing your sky now

THORAD DELTA 1 DEB

Track THORAD DELTA 1 DEB now!
10-day predictions


NORAD ID: 14879
Int'l Code: 1974-089ES
Perigee: 1,449.0 km
Apogee: 1,789.6 km
Inclination: 101.2 °
Period: 118.5 minutes
Semi major axis: 7990 km
RCS: 0.0345 m2 (small)
Launch date: November 15, 1974
Source: United States (US)
Launch site: AIR FORCE WESTERN TEST RANGE (AFWTR)

Note: This is SATELLITE DEBRIS
Your satellite tracking list
Your tracking list is empty




NASA's NSSDC Master Catalog

Two Line Element Set (TLE):
1 14879U 74089ES  24255.46800598  .00000066  00000-0  98558-3 0  9995
2 14879 101.2148 240.4065 0213095 182.8197 307.9867 12.15506972479069
Source of the keplerian elements: AFSPC